EST,Max TemperatureF,Mean TemperatureF,Min TemperatureF,Max Dew PointF,MeanDew PointF,Min DewpointF,Max Humidity, Mean Humidity, Min Humidity, Max Sea Level PressureIn, Mean Sea Level PressureIn, Min Sea Level PressureIn, Max VisibilityMiles, Mean VisibilityMiles, Min VisibilityMiles, Max Wind SpeedMPH, Mean Wind SpeedMPH, Max Gust SpeedMPH,PrecipitationIn, CloudCover, Events, WindDirDegrees
2013-2-1,33,25,15,27,7,0,80,43,25,30.37,30.10,29.77,10,10,2,23,8,37,0.00,2,Snow,286
2013-2-2,35,22,10,27,14,1,93,66,33,30.37,30.20,29.98,10,10,1,10,3,17,0.00,4,Snow,195
2013-2-3,39,30,21,28,24,18,93,75,48,29.97,29.88,29.80,10,9,1,14,2,22,0.03,7,Snow,259
2013-2-4,37,28,19,19,16,12,80,53,41,30.09,29.99,29.89,10,10,10,13,5,18,0.00,2,,195
2013-2-5,57,45,33,32,28,19,75,53,36,29.90,29.86,29.80,10,10,10,15,3,21,0.00,2,,238
2013-2-6,55,40,26,32,27,25,93,62,31,30.32,30.12,29.91,10,10,7,12,2,16,0.00,1,,7
2013-2-7,41,34,28,30,26,21,93,69,45,30.41,30.31,30.14,10,10,10,8,3,,0.00,5,Rain,56
2013-2-8,48,40,33,37,32,21,100,75,49,30.13,29.88,29.75,10,8,2,21,8,32,0.18,6,Rain-Snow,339
2013-2-9,50,39,28,21,16,10,60,41,23,30.36,30.18,29.93,10,10,10,18,10,28,0.00,0,,330
2013-2-10,46,32,17,27,16,12,86,51,29,30.47,30.36,30.23,10,10,10,8,2,,0.00,1,Rain,156
2013-2-11,55,46,37,52,42,30,100,86,58,30.21,29.94,29.77,10,8,1,10,4,18,0.10,6,Rain,213
2013-2-12,59,50,41,34,25,23,57,38,27,29.99,29.92,29.82,10,10,10,13,5,17,0.00,0,,240
2013-2-13,44,38,32,37,32,27,93,75,49,29.91,29.76,29.62,10,7,1,10,3,,0.06,6,Rain,2
2013-2-14,51,38,26,36,28,25,100,72,35,30.01,29.94,29.79,10,7,0,7,1,,0.00,1,Fog,181
2013-2-15,62,46,30,37,31,27,93,61,27,30.03,29.97,29.87,10,10,7,20,5,24,0.07,2,Rain,234
2013-2-16,39,34,28,36,27,12,100,73,47,30.00,29.90,29.82,10,9,5,10,3,23,0.03,5,Rain,4
2013-2-17,33,26,19,18,7,1,74,44,27,30.21,30.01,29.85,10,10,7,21,7,34,0.00,2,Snow,290
2013-2-18,48,30,12,19,11,3,79,44,20,30.36,30.26,30.17,10,10,10,8,4,,0.00,0,,221
2013-2-19,44,38,33,41,30,19,100,71,42,30.15,29.92,29.75,10,9,0,13,6,21,0.11,4,Fog-Rain,209
2013-2-20,46,35,24,19,15,10,74,42,27,30.13,29.98,29.86,10,10,10,17,8,22,0.00,0,,277
2013-2-21,44,32,21,18,15,12,80,49,31,30.28,30.18,30.11,10,10,5,12,3,18,0.00,0,,353
2013-2-22,37,34,30,30,23,16,81,65,51,30.35,30.27,30.19,10,10,7,7,2,,0.00,6,Rain-Snow,72
2013-2-23,46,40,33,41,36,30,100,93,81,30.16,29.95,29.80,10,3,0,7,2,,0.02,8,Fog,359
2013-2-24,60,46,33,41,32,21,100,67,26,30.09,29.89,29.79,10,6,0,20,4,26,0.01,4,Fog,339
2013-2-25,44,34,23,25,19,16,80,56,34,30.22,30.16,30.09,10,10,10,9,4,,0.00,0,,6
2013-2-26,48,36,24,45,32,19,100,85,70,30.19,29.93,29.56,10,7,2,15,3,21,1.00,6,Rain,39
2013-2-27,60,50,39,43,37,30,100,71,36,29.69,29.63,29.53,10,9,2,15,6,22,0.01,6,,269
2013-2-28,46,40,35,36,28,23,93,60,40,29.75,29.68,29.62,10,10,10,18,5,24,0.00,6,,263